Regional Weather Roundup
Issued by NWS Green Bay, WI

Home | Current Version | Previous Version | Text Only | Print | Product List | Glossary On
Versions: 1 2 3 4 5 6 7 8 9 10 11 12 13 14 15 16 17 18 19 20 21 22 23 24 25 26 27 28 29 30 31 32 33 34 35 36 37 38 39 40 41 42 43 44 45 46 47 48 49 50
000
ASUS43 KGRB 210959
RWRGRB

NORTH-CENTRAL AND NORTHEAST WISCONSIN REGIONAL WEATHER ROUNDUP
NATIONAL WEATHER SERVICE GREEN BAY WI
500 AM CDT TUE OCT 21 2014

WIZ005-009-010>012-018-019-211100-
NORTH CENTRAL WISCONSIN

CITY           SKY/WX    TMP DP  RH WIND       PRES   REMARKS
IRONWOOD       CLOUDY    39  37  93 CALM      30.16R
MANITOWISH WTR NOT AVBL
ARBOR VITAE    NOT AVBL
EAGLE RIVER    NOT AVBL
LAND O LAKES   NOT AVBL
RHINELANDER    CLOUDY    39  34  82 NE5       30.15R
PHILLIPS       NOT AVBL
ANTIGO         NOT AVBL
TOMAHAWK       NOT AVBL
MERRILL        NOT AVBL
$$

WIZ013-073-211100-
NORTHEAST WISCONSIN

CITY           SKY/WX    TMP DP  RH WIND       PRES   REMARKS
IRON MOUNTAIN  CLOUDY    40  34  79 N12       30.13R
MARINETTE      CLOUDY    43  36  75 N9        30.11R
$$

WIZ017-030-035>037-045-211100-
CENTRAL WISCONSIN

CITY           SKY/WX    TMP DP  RH WIND       PRES   REMARKS
MEDFORD        NOT AVBL
WAUSAU         CLOUDY    42  34  73 N7        30.13R
MOSINEE        NOT AVBL
MARSHFIELD     CLEAR     39  35  86 NE7       30.13R
WISC RAPIDS    CLEAR     40  34  79 N9        30.15R
STEVENS POINT  NOT AVBL
WAUPACA        NOT AVBL
SHAWANO        NOT AVBL
CLINTONVILLE   NOT AVBL
$$

WIZ038-039-048-051-211100-
FOX VALLEY

CITY           SKY/WX    TMP DP  RH WIND       PRES   REMARKS
NWS GREEN BAY  CLOUDY    44  38  79 N13       30.11R
APPLETON       NOT AVBL
OSHKOSH        CLOUDY    44  38  79 N12       30.11R
FOND DU LAC    CLOUDY    45  37  73 N9        30.10R
$$

WIZ022-050-052-211100-
EAST CENTRAL WISCONSIN

CITY           SKY/WX    TMP DP  RH WIND       PRES   REMARKS
STURGEON BAY   CLOUDY    45  37  76 N17G24    30.10R
MANITOWOC      NOT AVBL
SHEBOYGAN      CLOUDY    45  39  79 N7        30.08R
$$

LMZ563-521-522-541>543-211100-
LAKESHORE

STATION/POSITION TIME  TEMP    WIND        PRES    VSBY  WAVE
                       AIR SEA DIR/SP/G                  HT/PER
                 (UTC) (F)     (DEG/KT/KT) (MB)    (MI)  (FT/S)
SHEBOYGAN LKSHOR 0900   46 50  330/ 12/ 15 1018.5R
KEWAUNEE LKSHORE 0900   45     350/  8/ 13 1017.7R
NORTHPORT PIER   0900   46     360/ 18/ 22 1018.6R
N MID LAKE BUOY  0900   46 51  360/ 21/ 25 1017.3R         4/ 5
CHAMBERS ISLAND  0900   45     330/ 20/ 25 1018.6R
MENOMINEE LKSHOR 0900   44     340/ 16/ 18 1019.8R
$$


USA.gov is the U.S. government's official web portal to all federal, state and local government web resources and services.